Погода в Магистральном

Россия / Иркутская область     56°10′42″N   107°27′13″E
темп.,
°C
ветер,
м/с
пор.,
м/с
влажн.,
%
обл.,
%
осадки,
мм/ч
давл.,
гПа
погр.,
м
10 мая, пн
пн1023:00+3ссз2296100 0.0 101129
02:00+2зсз119598 0.0 101118
05:00+1ссз229580 0.0 101225
08:00+5с35765 0.0 1012491
11:00+10ссв35585 0.0 10111136
14:00+12ссв454394 0.0 10111995
17:00+13ссв454049 0.0 10112224
20:00+9с3106484 0.1 1013393
11 мая, вт
вт1123:00+4сз388311 0.0 1015170
02:00+3сз23906 0.0 101666
05:00+2сз269536 0.0 1017130
08:00+5ссз4885100 0.0 1018615
11:00+7ссз4661100 0.0 10181272
14:00+7ссз4557100 0.1 10181484
17:00+6ссз456095 0.1 10181266
20:00+4ссз256754 0.2 1018385
12 мая, ср
ср1223:000сз258772 0.0 1019121
02:000зсз229365 0.0 101957
05:00−3сз22955 0.0 101930
08:00+2с357099 0.0 1018978
11:00+4с355399 0.4 10171544
14:00+7с453999 1.3 10152136
17:00+7с464387 0.8 10141944
20:00+4ссз385743 0.9 1016459
13 мая, чт
чт1323:000сз267942 0.0 1017124
02:00−2сз22875 0.0 101836
05:00−3сз23885 0.0 101962
08:00+4с48555 0.0 10181023
11:00+7с5738100 0.0 10172250
14:00+8ссв5735100 0.0 10162250
17:00+10с4730100 0.0 10152446
20:00+7ссз234658 0.0 101646
14 мая, пт
пт1423:00+2зсз21613 0.0 101812
02:000з11655 0.0 101810
05:00−1юз11685 0.0 101810
08:00+7ю124299 0.0 1017368
11:00+11ю232994 0.0 10142083
14:00+14ююз342263 0.0 10112457
17:00+15ююз35215 0.0 10082719
20:00+11ю363549 0.0 1007126